User: anonymous   Login
Location: Red Shale Campground
(45.5700°N, 106.1600°W)
Time: 20:39:36
(UTC-07:00)
Language:

FENGYUN 3A - Orbit

View from above orbital plane
View from above orbital plane
View from above satellite
View from above satellite

Ground track
Ground track

The orbit data is extracted from the following two-line orbital elements,

1 32958U 08026A   17021.82814730  .00000012  00000-0  25152-4 0  9999
2 32958  98.4254  57.6977 0009594 352.4732   7.6295 14.19647150448570
Epoch (UTC): 21 January 2017 19:52:31
Eccentricity: 0.0009594
inclination: 98.4254°
perigee height: 819 km
apogee height: 833 km
right ascension of ascending node: 57.6977°
argument of perigee: 352.4732°
revolutions per day: 14.19647150
mean anomaly at epoch: 7.6295°
orbit number at epoch: 44857

The dashed part of the orbit path shows where the satellite is in the earth's shadow,  

DLR